When you browse on this site, cookies collect data to enhance your experience and personalize the content and advertising you see.
Visit our Privacy Policy to learn more. By continuing to use the site, you agree to this use of cookies and data.
  • In United Kingdom
  • List of Countries
  • For 7 days
  • Water Temperature
  • Satellite Maps
  • Weather Map
  • Weather Widgets
  • user-avatar
    Login

    Hourly Weather Pykivs'ka Slobidka

    Today, 17 June, Monday

    Time Temperature Precipitation Wind Pressure Humidity
    00:00 +22°C° 0 mm 1 mps 733 mmHg 75%
    01:00 +21°C° 0 mm 1 mps 733 mmHg 77%
    02:00 +21°C° 0 mm 1 mps 733 mmHg 80%
    03:00 +21°C° 0 mm 1 mps 733 mmHg 82%
    04:00 +21°C° 0 mm 1 mps 733 mmHg 84%
    05:00 +21°C° 0 mm 1 mps 733 mmHg 86%
    06:00 +22°C° 0.2 mm 1 mps 733 mmHg 83%
    07:00 +24°C° 0.2 mm 1 mps 733 mmHg 80%
    08:00 +25°C° 0.2 mm 2 mps 734 mmHg 77%
    09:00 +26°C° 1.3 mm 2 mps 734 mmHg 74%
    10:00 +27°C° 1.3 mm 2 mps 734 mmHg 70%
    11:00 +28°C° 1.3 mm 2 mps 734 mmHg 66%
    12:00 +29°C° 0.4 mm 2 mps 734 mmHg 66%
    13:00 +29°C° 0.4 mm 3 mps 734 mmHg 67%
    14:00 +29°C° 0.4 mm 3 mps 734 mmHg 67%
    15:00 +28°C° 0.3 mm 4 mps 734 mmHg 72%
    16:00 +27°C° 0.3 mm 4 mps 734 mmHg 77%
    17:00 +26°C° 0.3 mm 4 mps 734 mmHg 82%
    18:00 +25°C° 0.1 mm 4 mps 734 mmHg 86%
    19:00 +24°C° 0.1 mm 3 mps 734 mmHg 90%
    20:00 +22°C° 0.1 mm 3 mps 734 mmHg 94%
    21:00 +21°C° 0 mm 3 mps 734 mmHg 94%
    22:00 +20°C° 0 mm 2 mps 734 mmHg 95%
    23:00 +20°C° 0 mm 2 mps 734 mmHg 95%

    Tomorrow, 18 June, Tuesday

    Time Temperature Precipitation Wind Pressure Humidity
    00:00 +19°C° 0 mm 3 mps 734 mmHg 95%
    01:00 +19°C° 0 mm 3 mps 735 mmHg 95%
    02:00 +18°C° 0 mm 3 mps 735 mmHg 95%
    03:00 +18°C° 0 mm 3 mps 735 mmHg 95%
    04:00 +17°C° 0 mm 3 mps 735 mmHg 95%
    05:00 +17°C° 0 mm 3 mps 735 mmHg 96%
    06:00 +18°C° 0 mm 3 mps 735 mmHg 92%
    07:00 +19°C° 0 mm 3 mps 735 mmHg 89%
    08:00 +20°C° 0 mm 3 mps 735 mmHg 85%
    09:00 +21°C° 0 mm 3 mps 736 mmHg 81%
    10:00 +22°C° 0 mm 3 mps 736 mmHg 76%
    11:00 +24°C° 0 mm 3 mps 736 mmHg 72%
    12:00 +25°C° 0 mm 3 mps 735 mmHg 70%
    13:00 +25°C° 0 mm 3 mps 735 mmHg 68%
    14:00 +26°C° 0 mm 3 mps 735 mmHg 66%
    15:00 +26°C° 0 mm 3 mps 735 mmHg 68%
    16:00 +26°C° 0 mm 3 mps 735 mmHg 71%
    17:00 +26°C° 0 mm 3 mps 734 mmHg 73%
    18:00 +24°C° 0 mm 3 mps 734 mmHg 77%
    19:00 +23°C° 0 mm 2 mps 734 mmHg 82%
    20:00 +20°C° 0 mm 2 mps 734 mmHg 86%
    21:00 +20°C° 0 mm 2 mps 734 mmHg 88%
    22:00 +19°C° 0 mm 2 mps 734 mmHg 89%
    23:00 +18°C° 0 mm 2 mps 734 mmHg 90%

    Day after tomorrow, 19 June, Wednesday

    Time Temperature Precipitation Wind Pressure Humidity
    00:00 +18°C° 0 mm 2 mps 734 mmHg 91%
    01:00 +18°C° 0 mm 2 mps 734 mmHg 92%
    02:00 +17°C° 0 mm 2 mps 734 mmHg 93%
    03:00 +17°C° 0 mm 2 mps 734 mmHg 93%
    04:00 +17°C° 0 mm 2 mps 734 mmHg 94%
    05:00 +17°C° 0 mm 2 mps 734 mmHg 94%
    06:00 +19°C° 0 mm 2 mps 734 mmHg 90%
    07:00 +20°C° 0 mm 2 mps 734 mmHg 85%
    08:00 +23°C° 0 mm 2 mps 735 mmHg 81%
    09:00 +24°C° 0 mm 3 mps 735 mmHg 76%
    10:00 +25°C° 0 mm 3 mps 735 mmHg 72%
    11:00 +26°C° 0 mm 3 mps 735 mmHg 67%
    12:00 +26°C° 0 mm 3 mps 734 mmHg 67%
    13:00 +26°C° 0 mm 3 mps 734 mmHg 67%
    14:00 +27°C° 0 mm 3 mps 734 mmHg 67%
    15:00 +26°C° 0.1 mm 3 mps 734 mmHg 69%
    16:00 +26°C° 0.1 mm 3 mps 734 mmHg 70%
    17:00 +26°C° 0.1 mm 3 mps 733 mmHg 72%
    18:00 +25°C° 0 mm 3 mps 733 mmHg 77%
    19:00 +24°C° 0 mm 2 mps 733 mmHg 81%
    20:00 +21°C° 0 mm 2 mps 733 mmHg 86%
    21:00 +21°C° 0 mm 2 mps 733 mmHg 88%
    22:00 +20°C° 0 mm 2 mps 733 mmHg 90%
    23:00 +19°C° 0 mm 2 mps 734 mmHg 92%

    20 June, Thursday

    Time Temperature Precipitation Wind Pressure Humidity
    00:00 +19°C° 0 mm 2 mps 733 mmHg 93%
    01:00 +19°C° 0 mm 2 mps 733 mmHg 93%
    02:00 +18°C° 0 mm 2 mps 733 mmHg 94%
    03:00 +18°C° 0 mm 2 mps 733 mmHg 94%
    04:00 +18°C° 0 mm 2 mps 733 mmHg 94%
    05:00 +18°C° 0 mm 2 mps 733 mmHg 94%
    06:00 +19°C° 0 mm 3 mps 733 mmHg 91%
    07:00 +21°C° 0 mm 3 mps 733 mmHg 87%
    08:00 +22°C° 0 mm 3 mps 734 mmHg 84%
    09:00 +24°C° 0 mm 3 mps 734 mmHg 79%
    10:00 +26°C° 0 mm 3 mps 734 mmHg 74%
    11:00 +27°C° 0 mm 3 mps 734 mmHg 69%
    12:00 +27°C° 0.1 mm 4 mps 734 mmHg 68%
    13:00 +28°C° 0.1 mm 4 mps 734 mmHg 67%
    14:00 +28°C° 0.1 mm 4 mps 733 mmHg 66%
    15:00 +27°C° 0.1 mm 4 mps 733 mmHg 69%
    16:00 +27°C° 0.1 mm 4 mps 733 mmHg 72%
    17:00 +27°C° 0.1 mm 4 mps 733 mmHg 75%
    18:00 +25°C° 0.2 mm 4 mps 733 mmHg 79%
    19:00 +24°C° 0.2 mm 3 mps 733 mmHg 84%
    20:00 +22°C° 0.2 mm 3 mps 733 mmHg 88%
    21:00 +21°C° 0 mm 3 mps 733 mmHg 89%
    22:00 +20°C° 0 mm 3 mps 733 mmHg 90%
    23:00 +19°C° 0 mm 3 mps 734 mmHg 91%

    21 June, Friday

    Time Temperature Precipitation Wind Pressure Humidity
    00:00 +19°C° 0 mm 3 mps 734 mmHg 90%
    01:00 +18°C° 0 mm 3 mps 734 mmHg 89%
    02:00 +18°C° 0 mm 3 mps 733 mmHg 89%
    03:00 +18°C° 0 mm 3 mps 734 mmHg 88%
    04:00 +18°C° 0 mm 3 mps 734 mmHg 88%
    05:00 +17°C° 0 mm 3 mps 734 mmHg 87%
    06:00 +19°C° 0 mm 3 mps 734 mmHg 85%
    07:00 +21°C° 0 mm 3 mps 734 mmHg 82%
    08:00 +22°C° 0 mm 3 mps 734 mmHg 79%
    09:00 +25°C° 0 mm 3 mps 735 mmHg 75%
    10:00 +26°C° 0 mm 3 mps 735 mmHg 70%
    11:00 +27°C° 0 mm 4 mps 735 mmHg 66%
    12:00 +28°C° 0.1 mm 4 mps 735 mmHg 66%
    13:00 +28°C° 0.1 mm 4 mps 734 mmHg 65%
    14:00 +28°C° 0.1 mm 4 mps 734 mmHg 65%
    15:00 +28°C° 0 mm 4 mps 734 mmHg 67%
    16:00 +28°C° 0 mm 4 mps 734 mmHg 68%
    17:00 +28°C° 0 mm 4 mps 734 mmHg 70%
    18:00 +26°C° 0 mm 3 mps 734 mmHg 74%
    19:00 +24°C° 0 mm 3 mps 734 mmHg 78%
    20:00 +22°C° 0 mm 3 mps 734 mmHg 82%
    21:00 +21°C° 0 mm 3 mps 734 mmHg 81%
    22:00 +20°C° 0 mm 3 mps 734 mmHg 80%
    23:00 +19°C° 0 mm 2 mps 734 mmHg 79%

    22 June, Saturday

    Time Temperature Precipitation Wind Pressure Humidity
    00:00 +19°C° 0 mm 2 mps 734 mmHg 82%
    01:00 +18°C° 0 mm 2 mps 734 mmHg 86%
    02:00 +18°C° 0 mm 2 mps 734 mmHg 89%
    03:00 +18°C° 0 mm 2 mps 734 mmHg 89%
    04:00 +18°C° 0 mm 3 mps 734 mmHg 89%
    05:00 +17°C° 0 mm 3 mps 734 mmHg 88%
    06:00 +19°C° 0 mm 3 mps 734 mmHg 84%
    07:00 +21°C° 0 mm 3 mps 734 mmHg 80%
    08:00 +23°C° 0 mm 4 mps 734 mmHg 76%
    09:00 +25°C° 0 mm 4 mps 734 mmHg 71%
    10:00 +27°C° 0 mm 4 mps 734 mmHg 67%
    11:00 +28°C° 0 mm 4 mps 734 mmHg 62%
    12:00 +28°C° 0 mm 4 mps 734 mmHg 61%
    13:00 +29°C° 0 mm 4 mps 734 mmHg 60%
    14:00 +29°C° 0 mm 4 mps 734 mmHg 59%
    15:00 +29°C° 0 mm 4 mps 734 mmHg 63%
    16:00 +28°C° 0 mm 4 mps 734 mmHg 66%
    17:00 +28°C° 0 mm 3 mps 733 mmHg 70%
    18:00 +27°C° 0 mm 3 mps 733 mmHg 73%
    19:00 +25°C° 0 mm 3 mps 733 mmHg 77%
    20:00 +22°C° 0 mm 3 mps 733 mmHg 81%
    21:00 +22°C° 0 mm 3 mps 733 mmHg 79%
    22:00 +21°C° 0 mm 3 mps 733 mmHg 77%
    23:00 +20°C° 0 mm 3 mps 733 mmHg 75%
    Show more